Regional Weather Roundup
Issued by NWS

Home | Current Version | Previous Version | Text Only | Print | Product List | Glossary On
Versions: 1 2 3 4 5 6 7 8 9 10 11 12 13 14 15 16 17 18 19 20 21 22 23 24 25 26 27 28 29 30 31 32 33 34 35 36 37 38 39 40 41 42 43 44 45 46 47 48 49 50
000
ASUS44 KFWD 141715
RWRTX
NORTH TEXAS HOURLY WEATHER ROUNDUP
NATIONAL WEATHER SERVICE FORT WORTH TX
1100 AM CST THU DEC 14 2017

NOTE: "FAIR" INDICATES FEW OR NO CLOUDS BELOW 12,000 FEET WITH NO
SIGNIFICANT WEATHER AND/OR OBSTRUCTIONS TO VISIBILITY.

TXZ118-119-141800-
DALLAS/FORT WORTH METROPLEX

CITY           SKY/WX    TMP DP  RH WIND       PRES   REMARKS
DFW AIRPORT    SUNNY     57  30  35 N18       30.07R
DALLAS LOVE    MOSUNNY   59  29  31 NE15G24   30.08R
FTW MEACHAM    SUNNY     57  30  35 N16G29    30.09R
DAL-EXECUTIVE  SUNNY     60  29  30 N12       30.06R
FTW-ALLIANCE   SUNNY     56  30  37 N15       30.10R
FTW-NAS-JRB    SUNNY     56  27  32 N17G26    30.10R
FTW-SPINKS     SUNNY     57  28  33 N16G22    30.09R
ARLINGTON      SUNNY     56  30  37 N18       30.07R
GRAND PRAIRIE  SUNNY     55  28  35 N21       30.09R
ADDISON        SUNNY     57  27  30 N16G26    30.08R
MESQUITE       SUNNY     55  32  41 N14G22    30.07R
LANCASTER      SUNNY     59  29  31 N15       30.07R
$$

TXZ091>094-102>105-117-120-121-131>134-141800-
NORTH CENTRAL TEXAS

CITY           SKY/WX    TMP DP  RH WIND       PRES   REMARKS
SHRMAN/DENISON SUNNY     55  29  38 NE13      30.13R
GAINESVILLE    SUNNY     53  28  37 NE15G21   30.15R
BOWIE          SUNNY     52  28  39 N13G18    30.14R
BRIDGEPORT     SUNNY     55  27  34 NE13      30.14R
DECATUR        SUNNY     54  27  34 NE14G20   30.10S
DENTON         SUNNY     55  29  36 N21       30.11R
MCKINNEY       SUNNY     56  30  37 NE16      30.08R
BONHAM         SUNNY     53  29  40 N13       30.11R
GREENVILLE     SUNNY     59  30  33 N15G22    30.07R
ROCKWALL       SUNNY     56  30  37 N14G21    30.07R
TERRELL        SUNNY     59  28  30 NE14      30.06R
WAXAHACHIE     SUNNY     58  31  35 N15       30.07R
CLEBURNE       SUNNY     57  27  30 NE20G25   30.08R
GRANBURY       SUNNY     59  29  31 N13G18    30.10R
$$

TXZ083>090-098>101-113>116-127>130-139>142-154-155-141800-
WESTERN NORTH TEXAS

CITY           SKY/WX    TMP DP  RH WIND       PRES   REMARKS
WICHITA FALLS  MOSUNNY   52  28  39 N18       30.17R
WF-KICKAPOO    SUNNY     50  29  43 N12G22    30.19R
VERNON         SUNNY     52  21  29 N14       30.20R
ABILENE        SUNNY     52  27  38 N12       30.12R
ABILENE-DYESS  SUNNY     50  27  40 NE12      30.13R
GRAHAM           N/A     54  28  36 N14G20    30.12S
BRECKENRIDGE   SUNNY     54  26  33 NE17      30.13R
CISCO          SUNNY     50  25  37 N14G21    30.11R
EASTLAND       SUNNY     54  28  35 NE17      30.10S
RANGER         SUNNY     53  28  38 NE15      30.10S
MINERAL WELLS  SUNNY     56  26  31 N15G22    30.10R
STEPHENVILLE   SUNNY     55  25  31 NE13G20   30.10S
COMANCHE       SUNNY     56  28  33 N14       30.09R
BROWNWOOD      SUNNY     55  23  28 NE12G17   30.09R
COLEMAN          N/A     54  25  32 N15       30.10R
$$

TXZ143>147-156>162-174-175-141800-
CENTRAL TEXAS

CITY           SKY/WX    TMP DP  RH WIND       PRES   REMARKS
WACO           SUNNY     61  30  31 N13       30.05R
WACO-TSTC      SUNNY     59  28  31 N10G17    30.05R
WACO-MCGREGOR  SUNNY     56  32  40 N10       30.06R
HILLSBORO      SUNNY     61  30  31 N17       30.04R
CORSICANA      SUNNY     57  31  37 NE10      30.05R
MEXIA          SUNNY     56  32  40 N9G22     30.03R
HEARNE         CLOUDY    55  39  56 NW6       30.02S
CAMERON        CLOUDY    57  37  47 N9        30.01S
TEMPLE         CLOUDY    56  31  38 N12       30.04R
KILLEEN        SUNNY     56  28  33 N16       30.02R
KILLEEN-SKYLRK CLOUDY    57  31  37 N15       30.04R
FORT HOOD      SUNNY     55  29  36 N15       30.00R
GATESVILLE     SUNNY     59  27  29 N10       30.06S
HAMILTON       SUNNY     58  27  30 NE14      30.07R
LAMPASAS       CLOUDY    59  27  30 NE10      30.03S
$$

TXZ095>097-106>112-122>126-135>138-148>153-164>167-141800-
EAST TEXAS

CITY           SKY/WX    TMP DP  RH WIND       PRES   REMARKS
PARIS          SUNNY     56  31  38 N18       30.08R
SULPHUR SPRNGS SUNNY     57  31  37 N10       30.08R
MOUNT PLEASANT MOSUNNY   54  32  42 N8        30.07R
GILMER         CLOUDY    49  33  54 N5        30.04R
MINEOLA        SUNNY     55  30  38 N8        30.05R
TYLER          MOSUNNY   51  32  48 N8        30.03R
LONGVIEW       CLOUDY    51  39  63 NE5       30.03R
MARSHALL       CLOUDY    50  34  54 NE5       30.05R
ATHENS         CLOUDY    50  32  50 NE5       30.02F
PALESTINE      CLOUDY    57  35  44 N7        30.03R
JACKSONVILLE   CLOUDY    54  37  53 NE8       30.02F
HENDERSON      CLOUDY    52  36  53 NE8       30.04S
CENTER         CLOUDY    51  37  59 MISG      30.02F
NACOGDOCHES    CLOUDY    52  40  63 N3        30.02S
LUFKIN         CLOUDY    51  42  71 CALM      30.02R
$$

SUPPLEMENTAL OBSERVATIONS (NWS FORT WORTH AREA)

CITY           SKY/WX    TMP DP  RH WIND       PRES   REMARKS
DENISON DAM      N/A     54  30  40 NE10        N/A
CADDO GRASSLND   N/A     55  30  38 N9G17       N/A
PAT MAYSE LAKE   N/A     54  23  30 N16         N/A
GREENVILLE       N/A     57  30  35 N17         N/A
CEDAR HILL       N/A     57  30  35 N8          N/A
LBJ GRASSLAND    N/A     55  27  33 NE9G20      N/A
POSSUM KINGDOM   N/A     55  30  38 NE13        N/A
GRANBURY         N/A     59  30  33 N14         N/A
COMANCHE         N/A     57  27  30 NE15        N/A
MCGREGOR         N/A     57  30  35 NE10        N/A
TEMPLE           N/A     57  30  35 N16         N/A
LAKE LIMESTONE   N/A     55  36  47 N9          N/A
ATHENS           N/A     59  32  36 N7          N/A
$$

SUPPLEMENTAL OBSERVATIONS (NWS NORMAN AREA)

CITY           SKY/WX    TMP DP  RH WIND       PRES   REMARKS
GOODLETT         N/A     50  24  36 N12       30.21R
ODELL            N/A     51  27  40 N13       30.22R
CROWELL          N/A     51  26  38 N17       30.20F
KNOX CITY        N/A     52  25  35 N15       30.19S
SEYMOUR          N/A     52  27  37 N16G22    30.18S
$$

SUPPLEMENTAL OBSERVATIONS (NWS SAN ANGELO AREA)

CITY           SKY/WX    TMP DP  RH WIND       PRES   REMARKS
WEINERT          N/A     50  27  40 NE13      30.19R
HASKELL          N/A     52  25  35 NE17G23   30.17S
THROCKMORTON     N/A     53  28  38 NE10      30.17R
STAMFORD         N/A     52  28  40 NE14      30.16S
CLYDE            N/A     51  26  37 NE14      30.13R
HAMBY            N/A     54  28  37 NE13        N/A
IVIE RESERVOIR   N/A     55  25  30 NE13        N/A
COLORADO BEND    N/A     59  32  36 NE8         N/A
$$

SUPPLEMENTAL OBSERVATIONS (NWS SHREVEPORT AREA)

CITY           SKY/WX    TMP DP  RH WIND       PRES   REMARKS
CLARKSVILLE      N/A     57  30  35 N9          N/A
TEXARKANA        N/A     55  32  41 NE5G14      N/A
LINDEN           N/A     54  34  47 NE2         N/A
CADDO LAKE       N/A     52  36  54 E2          N/A
GILMER           N/A     52  34  50 N5          N/A
HENDERSON        N/A     54  36  50 NE7         N/A
N SABINE NF      N/A     54  39  58 MISG        N/A
S SABINE NF      N/A     54  45  71 NE2         N/A
$$

SUPPLEMENTAL OBSERVATIONS ARE A COLLECTION OF AUTOMATED INSTRUMENTS
THAT ARE MAINTAINED BY A VARIETY OF FEDERAL AND STATE AGENCIES.
CERTAIN ELEMENTS...SUCH AS HUMIDITY VALUES AND SUSTAINED WIND
SPEEDS...MAY BE APPROXIMATED.





USA.gov is the U.S. government's official web portal to all federal, state and local government web resources and services.